Location: Zilina
(0.0000°N, 18.7333°E)
Time: 01:43:34
(UTC+01:00)

Cosmos 2221 Rocket - Pass Details

Date: 19 February 2019
Orbit: 621 x 647 km, 82.5° (Epoch: 18 March)

Event Time Altitude Azimuth Distance (km) Brightness Sun altitude
Rises 19:32:33 0° 356° (N) 2,940 7.0 -22.9°
Reaches altitude 10° 19:34:47 10° 356° (N) 2,035 6.1 -23.5°
Enters shadow 19:35:07 12° 356° (N) 1,905 6.0 -23.6°
Exits shadow 19:37:36 38° 355° (N) 978 4.4 -24.2°
Maximum altitude 19:39:19 88° 274° (W) 650 3.5 -24.6°
Drops below altitude 10° 19:43:52 10° 177° (S) 2,045 6.3 -25.7°
Sets 19:46:07 0° 176° (S) 2,956 7.2 -26.3°
